Jefferson, NC

11:16 PM EDT on September 18, 2019 (GMT -0400)
Ashe County

Weather History for KGEV - August, 2019

Change the Weather History Date:

Tuesday, August 20, 2019

  Actual Average Record
Temperature  
Mean Temperature 70 °F -  
Max Temperature 80 °F 79 °F 94 °F (1983)
Min Temperature 60 °F 57 °F 48 °F (1976)
Cooling Degree Days 5    
Growing Degree Days 20 (Base 50)    
Moisture  
Dew Point 65 °F    
Average Humidity 82    
Maximum Humidity 99    
Minimum Humidity 55    
Precipitation  
Precipitation 0.00 in - - ()
Sea Level Pressure  
Sea Level Pressure 30.24 in    
Wind  
Wind Speed 2 mph ()    
Max Wind Speed 8 mph    
Max Gust Speed -    
Visibility 9.3 miles    
Events Fog , Thunderstorm    
Averages and records for this station are not official NWS values.
T = Trace of Precipitation, MM = Missing Value Source: Averaged Metar Reports

Daily Weather History Graph

Daily Weather History Graph

Search for Another Location

Airport or City:

Astronomy

Aug. 20, 2019 Rise Set
Actual Time 6:47 AM EDT 8:10 PM EDT
Civil Twilight 6:20 AM EDT 8:37 PM EDT
Nautical Twilight 5:47 AM EDT 9:09 PM EDT
Astronomical Twilight 5:13 AM EDT 9:43 PM EDT
Moon 11:06 PM EDT (8/20) 11:16 AM EDT (8/20)
Length of Visible Light 14h 17m
Length of Day
13h 23m
Waning Gibbous, 78% of the Moon is Illuminated
Aug 20
Waning Gibbous
Aug 23
Last Quarter
Aug 30
New
Sep 5
First Quarter
Sep 14
Full

Hourly Weather History & Observations

Time (EDT) Temp. Heat Index Dew Point Humidity Pressure Visibility Wind Dir Wind Speed Gust Speed Precip Events Conditions
12:15 AM 67.5 °F - 64.9 °F 92% 30.24 in 10.0 mi SSW 4.6 mph - N/A   Scattered Clouds
12:35 AM 66.6 °F - 64.9 °F 95% 30.24 in 10.0 mi Calm Calm - N/A   Clear
12:55 AM 66.4 °F - 64.4 °F 93% 30.24 in 10.0 mi SSW 3.5 mph - N/A   Clear
1:15 AM 65.3 °F - 64.4 °F 97% 30.23 in 10.0 mi Calm Calm - N/A   Clear
1:35 AM 66.0 °F - 64.2 °F 94% 30.23 in 10.0 mi Calm Calm - N/A   Clear
1:55 AM 66.2 °F - 63.9 °F 92% 30.23 in 10.0 mi Calm Calm - N/A   Clear
2:15 AM 67.3 °F - 63.5 °F 88% 30.23 in 10.0 mi Calm Calm - N/A   Clear
2:35 AM 66.0 °F - 64.4 °F 94% 30.23 in 10.0 mi Calm Calm - N/A   Clear
2:55 AM 64.2 °F - 63.9 °F 99% 30.23 in 10.0 mi Calm Calm - N/A   Clear
3:15 AM 64.8 °F - 63.7 °F 96% 30.23 in 10.0 mi Calm Calm - N/A   Clear
3:35 AM 65.7 °F - 64.2 °F 95% 30.23 in 10.0 mi Calm Calm - N/A   Clear
3:55 AM 65.3 °F - 64.4 °F 97% 30.23 in 10.0 mi Calm Calm - N/A   Clear
4:15 AM 63.9 °F - 63.5 °F 99% 30.23 in 7.0 mi Calm Calm - N/A   Clear
4:35 AM 64.6 °F - 64.0 °F 98% 30.23 in 10.0 mi Calm Calm - N/A   Clear
4:55 AM 64.4 °F - 62.2 °F 93% 30.24 in 10.0 mi Calm Calm - N/A   Clear
5:15 AM 64.6 °F - 62.1 °F 92% 30.24 in 10.0 mi SSW 3.5 mph - N/A   Clear
5:35 AM 64.0 °F - 63.5 °F 98% 30.24 in 10.0 mi Calm Calm - N/A   Clear
5:55 AM 61.0 °F - 60.8 °F 99% 30.24 in 0.5 mi Calm Calm - N/A Fog Fog
6:15 AM 60.6 °F - 60.1 °F 98% 30.25 in 1.0 mi Calm Calm - N/A   Mostly Cloudy
6:35 AM 62.2 °F - 62.1 °F 99% 30.25 in 10.0 mi Calm Calm - N/A   Scattered Clouds
7:15 AM 64.6 °F - 62.6 °F 93% 30.25 in 10.0 mi Calm Calm - N/A   Clear
7:35 AM 61.0 °F - 60.3 °F 97% 30.26 in 0.2 mi Calm Calm - N/A Fog Fog
7:55 AM 62.8 °F - 62.6 °F 99% 30.26 in 3.0 mi Calm Calm - N/A   Scattered Clouds
8:35 AM 64.8 °F - 63.5 °F 96% 30.26 in 10.0 mi Calm Calm - N/A   Clear
8:55 AM 66.9 °F - 64.4 °F 92% 30.26 in 10.0 mi Calm Calm - N/A   Clear
9:15 AM 66.9 °F - 64.6 °F 92% 30.27 in 10.0 mi Calm Calm - N/A   Clear
9:35 AM 68.9 °F - 64.8 °F 87% 30.27 in 10.0 mi Calm Calm - N/A   Clear
9:55 AM 72.3 °F - 66.2 °F 81% 30.26 in 10.0 mi Calm Calm - N/A   Clear
10:35 AM 74.8 °F - 65.1 °F 72% 30.26 in 10.0 mi Calm Calm - N/A   Clear
10:55 AM 77.0 °F - 66.0 °F 69% 30.27 in 10.0 mi Calm Calm - N/A   Clear
11:15 AM 78.3 °F - 64.6 °F 63% 30.27 in 10.0 mi Calm Calm - N/A   Clear
11:35 AM 79.2 °F - 64.4 °F 60% 30.27 in 10.0 mi Calm Calm - N/A   Clear
11:55 AM 78.6 °F - 64.4 °F 62% 30.27 in 10.0 mi SSW 3.5 mph - N/A   Clear
12:15 PM 79.7 °F - 62.1 °F 55% 30.27 in 10.0 mi SSW 6.9 mph - N/A   Clear
12:35 PM 79.7 °F - 63.7 °F 58% 30.27 in 10.0 mi SSW 4.6 mph - N/A   Clear
12:55 PM 80.2 °F 82.0 °F 64.6 °F 59% 30.27 in 10.0 mi Calm Calm - N/A   Scattered Clouds
1:15 PM 79.2 °F - 66.6 °F 65% 30.27 in 10.0 mi SSW 8.1 mph - N/A   Mostly Cloudy
1:35 PM 78.8 °F - 66.4 °F 66% 30.26 in 10.0 mi SSW 3.5 mph - N/A   Scattered Clouds
1:55 PM 80.2 °F 83.1 °F 68.7 °F 68% 30.25 in 10.0 mi SSW 6.9 mph - N/A   Mostly Cloudy
2:15 PM 79.3 °F - 67.6 °F 67% 30.23 in 10.0 mi SSW 4.6 mph - N/A   Mostly Cloudy
2:35 PM 80.6 °F 82.3 °F 64.8 °F 58% 30.23 in 10.0 mi SSW 3.5 mph - N/A   Scattered Clouds
2:55 PM 77.5 °F - 67.5 °F 71% 30.23 in 10.0 mi SSW 5.8 mph - N/A   Mostly Cloudy
3:15 PM 76.6 °F - 67.6 °F 74% 30.22 in 10.0 mi SSW 6.9 mph - N/A   Overcast
3:35 PM 76.5 °F - 67.8 °F 75% 30.23 in 10.0 mi SSW 3.5 mph - N/A   Mostly Cloudy
3:55 PM 75.7 °F - 67.6 °F 76% 30.22 in 10.0 mi SSW 4.6 mph - N/A   Overcast
4:15 PM 76.1 °F - 67.1 °F 74% 30.22 in 10.0 mi SSW 4.6 mph - N/A   Overcast
4:35 PM 77.4 °F - 68.0 °F 73% 30.20 in 10.0 mi SSW 3.5 mph - N/A   Mostly Cloudy
4:55 PM 76.5 °F - 67.3 °F 73% 30.20 in 10.0 mi SSW 4.6 mph - N/A   Mostly Cloudy
5:15 PM 75.9 °F - 66.7 °F 73% 30.20 in 10.0 mi South 5.8 mph - N/A   Mostly Cloudy
5:35 PM 76.5 °F - 66.0 °F 70% 30.21 in 10.0 mi South 4.6 mph - N/A   Mostly Cloudy
5:55 PM 74.3 °F - 66.0 °F 75% 30.21 in 10.0 mi South 3.5 mph - N/A Thunderstorm Mostly Cloudy
6:15 PM 72.7 °F - 65.7 °F 79% 30.21 in 10.0 mi South 3.5 mph - N/A   Scattered Clouds
6:35 PM 72.7 °F - 65.7 °F 79% 30.20 in 10.0 mi South 3.5 mph - N/A   Clear
6:55 PM 72.1 °F - 66.4 °F 82% 30.20 in 10.0 mi South 3.5 mph - N/A   Clear
7:15 PM 71.2 °F - 65.7 °F 82% 30.20 in 10.0 mi South 3.5 mph - N/A   Clear
7:35 PM 70.7 °F - 64.9 °F 82% 30.21 in 10.0 mi South 3.5 mph - N/A   Clear